Location: Newark
(42.4040°N, 21.7420°E)
Time: 10:06:50
(UTC+00:00)

ISS - Pass Details

Date: 23 December 2019
Orbit: 415 x 421 km, 51.6° (Epoch: 19 January)

Event Time Altitude Azimuth Distance (km) Brightness Sun altitude
Rises 05:12:35 0° 239° (WSW) 2,342 -0.3 -8.5°
Reaches altitude 10° 05:14:40 10° 241° (WSW) 1,482 -1.3 -8.2°
Maximum altitude 05:17:59 74° 327° (NNW) 435 -3.8 -7.6°
Drops below altitude 10° 05:21:20 10° 53° (NE) 1,491 -0.6 -7.1°
Sets 05:23:26 0° 55° (NE) 2,357 0.5 -6.7°
